Taupo (NZAP)

Aerodrome — Elev 1335
New Zealand
S038.44.22.999 E176.05.03.998
Loading chart...

Current Weather

NZAP 221030Z 13008KT 20KM FEW030 06/03 Q1015 RMK AUTO VATSIM USE ONLY

Published 33 minutes ago

Airport Activity

Loading chart...
Loading chart...

Standard ATC Positions

CallsignRadio Name / Freq / Voice Room / TypeFrequencyVoice RoomType
NZCH-B_CTR Bay Approach
119.500
nzch-b_ctr
119.500nzch-b_ctr

Charts